www.pogodaiklimat.ru

Погода и климат >> Архив погоды >> Южная Африка >> Паддок


ПОГОДА в Паддоке

  • Прогноз погоды в Паддоке
  • Монитор погоды в Паддоке

АРХИВ ПОГОДЫ в Паддоке

Время (UTC), дата Ветер
(напр.,м/с)
 
Видим.   Явления Облачность Т
(С)
Тd
(С)
f
(%)
Тe
(С)
Тes
(С)
Комфортность P
(гПа)
Po
(гПа)
Тmin
(С)
Tmax
(С)
R
(мм)
R24
(мм)
S
(см)
12 12.08 Ю 7 н/о н/о +17.3 +7.1 51 +16 +16 960.1 +14.5 +20.4
18 12.08 ЮЗ 2 н/о н/о +14.7 +9.1 69 +15 +15 965.4 +14.5 +20.4
00 13.08 Ю 2 н/о н/о +13.7 +9.7 77 +13 +13 966.5 +13.7 +20.4
03 13.08 штиль 0 н/о н/о +13.2 +11.4 89 +13 +13 966.3 +13.2 +20.4
06 13.08 С 2 н/о н/о +13.4 +11.1 86 +13 +13 967.3 +12.4
12 13.08 СВ 5 н/о н/о +17.5 +12.2 71 +17 +17 963.6 +12.4 +17.9
18 13.08 СВ 4 н/о н/о +14.9 +13.1 89 +14 +14 964.0 +14.8 +18.6
00 14.08 СЗ 2 н/о н/о +12.3 +10.7 90 +12 +12 963.8 +12.3 +18.6
03 14.08 ЮЗ 3 н/о н/о +13.0 +8.5 74 +12 +12 964.4 +12.3 +18.6
06 14.08 ЮЗ 4 н/о н/о +16.0 +9.2 64 +15 +15 966.6 +12.3
12 14.08 Ю 7 н/о н/о +20.5 +12.0 58 +22 +22 комфорт 967.8 +12.3 +23.8
18 14.08 З 4 н/о н/о +14.5 +7.8 64 +13 +13 973.3 +14.4 +23.8
00 15.08 З 3 н/о н/о +13.4 +8.9 74 +12 +12 973.2 +11.0 +23.8
03 15.08 СЗ 2 н/о н/о +10.4 +6.7 78 +9 +9 972.4 +10.0 +23.8
06 15.08 СЗ 2 н/о н/о +12.2 +6.9 70 +11 +11 972.8 +9.8
12 15.08 СВ 4 н/о н/о +22.1 +13.5 58 +25 +25 комфорт 968.2 +9.8 +23.3
18 15.08 СЗ 4 н/о н/о +15.0 +12.7 86 +14 +14 967.1 +14.6 +23.3
00 16.08 С 4 н/о н/о +15.3 +9.7 69 +14 +14 964.8 +14.6 +23.3
03 16.08 С 2 н/о н/о +14.0 +7.1 63 +14 +14 963.5 +13.9 +23.3
06 16.08 С 4 н/о н/о +18.3 +3.1 36 +18 +18 963.8 +13.6
12 16.08 СВ 3 н/о н/о +32.8 +3.1 15 +30 +30 жарко 960.1 +13.6 +32.8
18 16.08 ЮЗ 7 н/о н/о +16.2 +13.7 85 +15 +15 964.2 +16.2 +32.8
00 17.08 ЮЗ 5 н/о н/о +14.0 +9.6 75 +12 +12 966.4 +13.9 +32.8
03 17.08 З 4 н/о н/о +13.8 +7.8 67 +13 +13 966.6 +13.5 +32.8
06 17.08 ЮЗ 4 н/о н/о +15.8 +8.8 63 +15 +15 968.7 +13.5
12 17.08 Ю 5 н/о н/о +14.3 +13.1 92 +13 +13 968.6 +13.5 +18.8 0.2
18 17.08 ЮВ 2 н/о н/о +12.7 +11.9 95 +12 +12 970.0 +12.7 +18.8 2
00 18.08 СВ 3 н/о н/о +12.8 +12.1 96 +11 +11 967.5 +12.7 +18.8 4
03 18.08 СВ 5 н/о н/о +13.2 +12.7 97 +11 +11 965.4 +12.7 +18.8
06 18.08 СВ 6 н/о н/о +13.7 +13.2 97 +12 +12 964.9 +12.7 4
12 18.08 В 3 н/о н/о +21.3 +14.3 64 +24 +24 комфорт 960.2 +12.7 +21.8
18 18.08 СВ 2 н/о н/о +16.4 +15.6 95 +17 +17 959.5 +15.9 +21.8
00 19.08 СЗ 4 н/о н/о +20.4 +8.5 46 +22 +22 комфорт 956.2 +15.4 +21.8
03 19.08 ЮЗ 8 н/о н/о +18.9 +8.6 51 +19 +19 957.9 +15.4 +22.9
06 19.08 ЮЗ 8 н/о н/о +15.8 +11.4 75 +14 +14 962.1 +15.4

 

Местоположение метеостанции Паддок (Южная Африка): широта -30.75 долгота 30.26 высота над уровнем моря 506 м.

В архиве по умолчанию представлена погода в Паддоке за последнюю неделю. Архивные данные за месяц целиком и за предыдущие месяцы, начиная с января 2011 года, Вы можете получить, выбрав интересующий диапазон дат из раскрывающегося списка и нажав кнопку "Ввод!".


*Определитесь, кто Вы:
робот инопланетянин человек

Внимание! Время в таблицах - всемирное. Для получения местного времени необходимо прибавить поправку, которая равна 2 ч.

Смотрите также архив погоды в соседних городах и на ближайших метеорологических станциях:

Погода в Маргите (Южная Африка) (13 км)
Погода в Порт-Эдварде (Южная Африка) (35 км)
Погода в Пеннингтоне (Южная Африка) (57 км)
Погода в Иксопо (Южная Африка) (69 км)
Погода в Кокстаде (Южная Африка) (87 км)
Погода в Дурбане (Южная Африка) (110 км)
Погода в Порт Сент-Джон (Южная Африка) (119 км)
Погода в Питермарицбург аэропорту (Южная Африка) (123 км)
Погода в Питермарицбурге (Южная Африка) (125 км)
Погода в Аэропорту Вирджиния (Южная Африка) (133 км)

Пояснения к столбцам:

Ветер - указаны скорость ветра в м/с - средняя за 10 мин, порывы в срок и между сроками (в фигурных скобках) и направление, откуда дует ветер: С - северный, СВ - северо-восточный, В - восточный, ЮВ - юго-восточный, Ю - южный, ЮЗ - юго-западный, З - западный, СЗ - северо-западный.
Видимость - горизонтальная дальность видимости в метрах или километрах. При видимости от 1 до 10 км при отсутствии осадков обычно наблюдается дымка, при ухудшении видимости до 1 км и менее - туман. В сухую погоду видимость может ухудшаться дымом, пылью или мглою.
Явления - указаны атмосферные явления, наблюдавшиеся в срок или в последний час перед сроком; фигурными скобками обозначены явления, наблюдавшиеся между сроками (за 1-3 часа до срока); квадратными скобками обозначены град или гололедные отложения с указанием их диаметра в мм.
Облачность - указаны через наклонную черту общая и нижняя облачность в баллах и высота нижней границы облаков в метрах; квадратными скобками обозначены формы облаков: Ci - перистые, Cs - перисто-слоистые, Cc - перисто-кучевые, Ac - высококучевые, As - высокослоистые, Sc - слоисто-кучевые, Ns - слоисто-дождевые, Cu - кучевые, Cb - кучево-дождевые. Подробнее классификацию облаков см. в Атласе облаков (PDF).
T - Температура воздуха - температура, измеренная на высоте 2 м над землей.
Td - Температура точки росы - температура, при понижении до которой содержащийся в воздухе водяной пар достигнет насыщения.
f - Относительная влажность воздуха - влажноcть воздуха, измеренная на высоте 2 м над землей.
Te - Эффективная температура - температура, которую ощущает одетый по сезону человек в тени. Характеристика душности погоды. При расчете учитывается влияние влажности воздуха и скорости ветра на теплоощущения человека.
Tes - Эффективная температура на солнце - температура, которую ощущает человек, с поправкой на солнечный нагрев. Характеристика знойности погоды. Зависит от высоты солнца над горизонтом, облачности и скорости ветра. Ночью, в пасмурную погоду, а также при ветре 12 м/с и более поправка равна нулю.
P - Атмосферное давление - приведенное к уровню моря атмосферное давление.
Po - Атмосферное давление - измеренное на уровне метеостанции атмосферное давление.
Tmin - Минимальная температура - минимум температуры воздуха на высоте 2 м над землей.
Tmax - Максимальная температура - максимум температуры воздуха на высоте 2 м над землей.
R - Количество осадков - Количество выпавших осадков за период времени, мм. При наведении курсора мыши на число - период времени, за который выпало указанное количество осадков.
R24 - Количество осадков - Количество выпавших осадков за 24 часа, мм.
S - Снежный покров - Высота снежного покрова, см. При наведении курсора мыши на число - состояние снежного покрова и степень покрытия местности в баллах.